[[{"header":{"parameterUnit":"m.s-1","parameterCategory":1,"la1":30.2991,"la2":30.254,"lo1":-89.0895,"lo2":-89.0444,"dy":0.0017,"dx":0.0017,"nx":28,"ny":28,"refTime":"2023-10-15T21:00:00:Z","depth":0,"parameterNumber":2,"parameterNumberName":"U-component_of_WINDS"},"data":[0,0,0,0,0,0,0,0,0,0,0,0,0,0,0,0,0,0,0,0,0,0,0,0,0,0,0,0,0,0,0,0,0,0,0,0,0,0,0,0,0,0,0,0,0,0,0,0,0,0,0,0,0,0,0,0,0,0,0.952,0.9519,0,0.9391,0.939,0.9388,0.9355,0.9356,0.9357,0.9358,0.9219,0.9215,0.921,0,0,0,0,0,0,0,0,0,0,0,0,0,0.9732,0.9729,0.9521,0.9519,0.9517,0.9391,0.939,0.9388,0.9355,0.9356,0.9357,0.9358,0.9221,0.9215,0.921,0,0,0,0,0,0,0,0,0,0,0,0,0,0.9625,0.9728,0.9521,0.9486,0.9482,0.9392,0.9389,0.9387,0.9355,0.9356,0.9357,0.9358,0.9222,0.9216,0.9209,0.9143,0,0,0.9189,0.9186,0,0,0,0,0,0,0,0,0.9631,0.9618,0.9493,0.9488,0.9483,0.9391,0.9413,0.9305,0.9354,0.9403,0.9358,0.9359,0.9275,0.9264,0.9237,0.9137,0.9131,0.9188,0.9184,0.9181,0.9179,0,0,0,0,0,0,0,0.9639,0.9623,0.9469,0.9491,0.9485,0.9474,0.9461,0.9393,0.9333,0.9399,0.9396,0.9381,0.9272,0.9243,0.9233,0.9129,0.9188,0.9182,0.9178,0.9176,0.8964,0.8962,0,0,0,0,0,0,0.9653,0.9629,0.9473,0.9465,0.9562,0.947,0.9454,0.9419,0.9334,0.9322,0.938,0.938,0.9254,0.9241,0.9228,0.9142,0.9181,0.9175,0.9171,0.8965,0.8963,0.8962,0,0,0,0,0,0,0.9658,0.964,0.9478,0.9546,0.9525,0.9465,0.9425,0.9416,0.9387,0.932,0.9309,0.9362,0.9255,0.9238,0.9164,0.9137,0.9172,0.9166,0.8967,0.8965,0.8963,0.8972,0,0,0,0,0,0,0.9664,0.9642,0.9618,0.9546,0.9522,0.9419,0.9424,0.9412,0.9376,0.9374,0.93,0.9289,0.9254,0.9174,0.9157,0.9128,0.9161,0.8969,0.8966,0.8963,0.8974,0.897,0.8967,0,0,0,0,0,0.9672,0.9625,0.9617,0.9598,0.9491,0.9417,0.9403,0.9366,0.9374,0.9348,0.9305,0.9291,0.9144,0.9167,0.9148,0.9116,0.8971,0.8967,0.8964,0.8975,0.8971,0.8967,0,0,0,0,0,0,0.9693,0.9615,0.9605,0.9534,0.9483,0.9412,0.9378,0.9363,0.9307,0.9308,0.9262,0.9246,0.9174,0.9138,0.9166,0.9046,0.9057,0.9049,0.9072,0.9067,0.9064,0.9073,0.9155,0,0,0,0,0,0.9689,0.9638,0.9572,0.9516,0.9491,0.9439,0.9405,0.9381,0.9326,0.9303,0.9255,0.92,0.914,0.9102,0.9045,0.8969,0.895,0.8938,0.8935,0.8932,0.8925,0.8879,0.8872,0.895,0.895,0.895,0,0,0.9681,0.9632,0.9603,0.9519,0.9476,0.9421,0.9421,0.9364,0.9322,0.9294,0.9221,0.9184,0.9119,0.9043,0.9008,0.9011,0.89,0.8927,0.8926,0.892,0.8874,0.8867,0.886,0.8947,0.8948,0.8948,0,0,0.9638,0.9597,0.9544,0.9502,0.9438,0.9404,0.9391,0.9322,0.9297,0.9224,0.9201,0.9149,0.905,0.9003,0.8967,0.8905,0.8888,0.8887,0.8868,0.8824,0.8818,0.8812,0.8786,0.8778,0.8881,0.8881,0.8881,0,0.9635,0.9554,0.9518,0.9462,0.9424,0.9398,0.9342,0.9302,0.9222,0.9195,0.9201,0.9074,0.9028,0.894,0.8925,0.8897,0.8878,0.8894,0.8822,0.8816,0.881,0.8785,0.8776,0.8881,0.8881,0.8881,0.8881,0,0.9552,0.9496,0.946,0.9385,0.9343,0.9288,0.9241,0.9203,0.9182,0.9147,0.907,0.9015,0.8945,0.8922,0.8902,0.883,0.8834,0.8832,0.8841,0.8803,0.8778,0.8769,0.8881,0.8881,0.8881,0.8881,0,0,0.9517,0.9422,0.9409,0.9374,0.9301,0.9255,0.9197,0.913,0.9096,0.9042,0.8989,0.8905,0.8902,0.886,0.8834,0.8796,0.8745,0.8797,0.8795,0.8787,0.8659,0.8659,0.8649,0.8736,0.8734,0.8732,0.8663,0,0.9462,0.9359,0.9325,0.9238,0.9184,0.9158,0.9107,0.9055,0.902,0.8967,0.8927,0.8867,0.8869,0.8844,0.8805,0.876,0.8719,0.8765,0.8683,0.8681,0.8697,0.8637,0.8637,0.8575,0.8654,0.8653,0.8651,0,0.9384,0.9329,0.9238,0.917,0.9145,0.91,0.9034,0.8985,0.8925,0.8901,0.8855,0.8831,0.8766,0.8782,0.8689,0.8721,0.8686,0.8659,0.8655,0.8644,0.8662,0.862,0.8554,0.8544,0.8637,0.8638,0.8639,0,0.9364,0.9267,0.9199,0.917,0.9089,0.9057,0.9022,0.8964,0.8924,0.8866,0.8839,0.8774,0.8737,0.8686,0.8644,0.8659,0.8554,0.8567,0.853,0.8531,0.8506,0.8508,0.843,0.8489,0.8489,0.849,0.849,0,0.9305,0.9249,0.9188,0.9146,0.9081,0.9042,0.8978,0.8941,0.8889,0.8836,0.8811,0.8762,0.8711,0.8655,0.8621,0.8548,0.8533,0.851,0.8501,0.851,0.8512,0.8484,0.8486,0.8487,0.8488,0.8488,0.8489,0,0.927,0.9228,0.9151,0.9082,0.9063,0.9018,0.8957,0.8913,0.8878,0.8812,0.8794,0.8736,0.8668,0.8622,0.8535,0.8513,0.8432,0.8426,0.8453,0.8448,0.8412,0.8415,0.8311,0.8294,0.8368,0.8367,0.8366,0,0.9234,0.919,0.9116,0.908,0.9044,0.8987,0.8947,0.8905,0.8864,0.8791,0.8755,0.8686,0.8628,0.8521,0.8469,0.8402,0.8391,0.836,0.8381,0.8391,0.8387,0.8388,0.8382,0.8355,0.8355,0.8354,0.8354,0,0.9172,0.9153,0.9097,0.9033,0.8986,0.8933,0.888,0.8852,0.8801,0.8755,0.8686,0.8641,0.8552,0.8482,0.841,0.8371,0.8352,0.8348,0.8335,0.8343,0.8359,0.8346,0.844,0.835,0.835,0.8351,0.8351,0.8351,0.9133,0.9091,0.9032,0.897,0.8926,0.8876,0.8831,0.879,0.8732,0.8657,0.8636,0.8563,0.8501,0.8402,0.8362,0.8302,0.8305,0.8287,0.8282,0.8278,0.8276,0.8371,0.829,0.829,0.829,0.829,0.829,0,0.9067,0.9027,0.8971,0.8897,0.8847,0.8838,0.8778,0.8736,0.8672,0.8617,0.8561,0.848,0.8412,0.8356,0.8284,0.8247,0.8237,0.823,0.823,0.8221,0.8279,0.8296,0.8239,0.8239,0.8239,0.8239,0.8239,0.8239,0.9026,0.8955,0.8929,0.8834,0.8794,0.8724,0.869,0.8643,0.8599,0.851,0.8454,0.8418,0.8361,0.8286,0.8222,0.8206,0.818,0.8174,0.8156,0.8211,0.8217,0.8222,0.8237,0.8169,0.8169,0.8102,0.8101,0.8101]},{"header":{"parameterUnit":"m.s-1","parameterCategory":1,"la1":30.2991,"la2":30.254,"lo1":-89.0895,"lo2":-89.0444,"dy":0.0017,"dx":0.0017,"nx":28,"ny":28,"refTime":"2023-10-15T21:00:00:Z","depth":0,"parameterNumber":3,"parameterNumberName":"V-component_of_WINDS"},"data":[0,0,0,0,0,0,0,0,0,0,0,0,0,0,0,0,0,0,0,0,0,0,0,0,0,0,0,0,0,0,0,0,0,0,0,0,0,0,0,0,0,0,0,0,0,0,0,0,0,0,0,0,0,0,0,0,0,0,-4.0909,-4.0911,0,-4.103,-4.1032,-4.1033,-4.098,-4.0977,-4.0974,-4.0971,-4.1091,-4.1097,-4.1103,0,0,0,0,0,0,0,0,0,0,0,0,0,-4.0627,-4.0632,-4.0909,-4.0911,-4.0912,-4.103,-4.1032,-4.1034,-4.098,-4.0977,-4.0973,-4.097,-4.1089,-4.1096,-4.1103,0,0,0,0,0,0,0,0,0,0,0,0,0,-4.0749,-4.0634,-4.0909,-4.09,-4.0901,-4.103,-4.1032,-4.1034,-4.0981,-4.0977,-4.0972,-4.0968,-4.1087,-4.1095,-4.1104,-4.1248,0,0,-4.1131,-4.1135,0,0,0,0,0,0,0,0,-4.0742,-4.0759,-4.09,-4.0901,-4.0902,-4.0986,-4.0976,-4.1106,-4.0982,-4.095,-4.0971,-4.0966,-4.1059,-4.107,-4.1102,-4.1254,-4.1259,-4.1132,-4.1138,-4.1141,-4.1144,0,0,0,0,0,0,0,-4.0734,-4.0754,-4.0957,-4.0902,-4.0903,-4.0888,-4.0901,-4.1,-4.1028,-4.0953,-4.0949,-4.0965,-4.1059,-4.1094,-4.1105,-4.1261,-4.1132,-4.114,-4.1145,-4.1149,-4.1534,-4.1539,0,0,0,0,0,0,-4.0726,-4.0747,-4.0953,-4.0961,-4.0809,-4.0897,-4.0911,-4.0963,-4.1027,-4.1032,-4.0968,-4.0962,-4.1081,-4.1095,-4.1109,-4.1281,-4.1141,-4.115,-4.1155,-4.1529,-4.1535,-4.154,0,0,0,0,0,0,-4.072,-4.0745,-4.0948,-4.0853,-4.0878,-4.0907,-4.0966,-4.0968,-4.1003,-4.1039,-4.1043,-4.1,-4.1078,-4.1096,-4.1214,-4.1284,-4.1154,-4.1162,-4.1523,-4.1531,-4.1538,-4.1626,0,0,0,0,0,0,-4.0712,-4.0743,-4.08,-4.0855,-4.0883,-4.1053,-4.097,-4.0973,-4.1019,-4.1012,-4.1069,-4.1074,-4.1076,-4.1201,-4.1223,-4.1294,-4.1169,-4.1517,-4.1527,-4.1535,-4.1617,-4.1636,-4.1652,0,0,0,0,0,-4.0702,-4.0819,-4.0803,-4.0828,-4.0955,-4.1058,-4.1074,-4.1074,-4.1025,-4.1081,-4.1103,-4.1072,-4.1273,-4.1213,-4.1237,-4.1313,-4.1513,-4.1524,-4.1535,-4.161,-4.1632,-4.1651,0,0,0,0,0,0,-4.077,-4.0826,-4.0809,-4.0947,-4.0998,-4.1048,-4.1119,-4.1098,-4.1163,-4.1154,-4.115,-4.1164,-4.1285,-4.131,-4.1243,-4.1454,-4.1385,-4.1401,-4.1434,-4.1455,-4.1472,-4.1464,-4.1176,0,0,0,0,0,-4.0802,-4.0882,-4.0926,-4.1044,-4.107,-4.1091,-4.1135,-4.1131,-4.1183,-4.1204,-4.1236,-4.1286,-4.136,-4.1409,-4.1479,-4.162,-4.1631,-4.1684,-4.1701,-4.1715,-4.1729,-4.1804,-4.1827,-4.1576,-4.1576,-4.1576,0,0,-4.0867,-4.0907,-4.0958,-4.1059,-4.1098,-4.1179,-4.1109,-4.1199,-4.1259,-4.1217,-4.1331,-4.1355,-4.1411,-4.1541,-4.1599,-4.1565,-4.18,-4.1729,-4.174,-4.1746,-4.1817,-4.1841,-4.1862,-4.1584,-4.1582,-4.1581,0,0,-4.1028,-4.1067,-4.1169,-4.121,-4.127,-4.1282,-4.1306,-4.136,-4.1375,-4.1488,-4.1459,-4.1529,-4.1657,-4.1698,-4.1735,-4.1909,-4.1883,-4.1932,-4.2022,-4.2095,-4.2115,-4.2132,-4.2193,-4.2216,-4.1946,-4.1946,-4.1946,0,-4.1101,-4.1225,-4.1224,-4.1316,-4.136,-4.1327,-4.1429,-4.1468,-4.1548,-4.1578,-4.1539,-4.1699,-4.1734,-4.1872,-4.1914,-4.1946,-4.1972,-4.1926,-4.2112,-4.213,-4.2146,-4.2204,-4.2227,-4.1952,-4.1951,-4.1951,-4.195,0,-4.1311,-4.1397,-4.1472,-4.1551,-4.1603,-4.17,-4.1712,-4.1764,-4.1755,-4.1771,-4.1886,-4.1927,-4.2004,-4.2036,-4.2028,-4.2173,-4.215,-4.2112,-4.2042,-4.2176,-4.223,-4.2253,-4.196,-4.1958,-4.1956,-4.1955,0,0,-4.152,-4.1596,-4.1623,-4.1658,-4.1721,-4.1787,-4.188,-4.1957,-4.2002,-4.2057,-4.2135,-4.2243,-4.2208,-4.2251,-4.2246,-4.231,-4.2444,-4.2264,-4.2265,-4.2296,-4.2605,-4.2633,-4.2659,-4.2427,-4.2431,-4.2434,-4.26,0,-4.1685,-4.1852,-4.1853,-4.2005,-4.2084,-4.2052,-4.2134,-4.218,-4.2197,-4.2264,-4.2282,-4.2359,-4.2307,-4.2332,-4.2394,-4.2415,-4.2506,-4.2403,-4.2497,-4.2501,-4.2485,-4.2688,-4.2718,-4.2873,-4.2621,-4.2625,-4.2627,0,-4.1901,-4.1964,-4.2125,-4.2175,-4.2208,-4.2281,-4.2351,-4.2416,-4.2467,-4.2474,-4.2521,-4.2507,-4.26,-4.2527,-4.2655,-4.2585,-4.2623,-4.2639,-4.2645,-4.2654,-4.2572,-4.2702,-4.2922,-4.2945,-4.2661,-4.2658,-4.2656,0,-4.2036,-4.2161,-4.2273,-4.2304,-4.2365,-4.2417,-4.2445,-4.2492,-4.2537,-4.2597,-4.2626,-4.2696,-4.2734,-4.2787,-4.2791,-4.2738,-4.2919,-4.2847,-4.2927,-4.2927,-4.2967,-4.2964,-4.3196,-4.2992,-4.2992,-4.2991,-4.2991,0,-4.222,-4.232,-4.2335,-4.2404,-4.2513,-4.2512,-4.262,-4.2643,-4.2685,-4.2756,-4.2732,-4.2799,-4.28,-4.2868,-4.2871,-4.2976,-4.2993,-4.3001,-4.3,-4.3003,-4.3002,-4.3028,-4.3017,-4.2997,-4.2996,-4.2995,-4.2994,0,-4.2391,-4.2405,-4.2525,-4.2573,-4.2587,-4.2666,-4.2706,-4.2771,-4.2784,-4.2875,-4.2896,-4.2917,-4.2996,-4.3005,-4.3096,-4.3098,-4.3224,-4.3212,-4.3207,-4.3205,-4.3284,-4.3277,-4.3541,-4.3575,-4.3349,-4.3351,-4.3353,0,-4.2508,-4.2584,-4.264,-4.2687,-4.2718,-4.2793,-4.2839,-4.284,-4.2889,-4.2952,-4.3008,-4.3085,-4.3146,-4.3272,-4.3295,-4.3364,-4.3353,-4.3441,-4.3363,-4.3363,-4.3354,-4.335,-4.3356,-4.3456,-4.3459,-4.3461,-4.3462,0,-4.2714,-4.2717,-4.2785,-4.2856,-4.2912,-4.2967,-4.3019,-4.3058,-4.3065,-4.312,-4.3201,-4.3249,-4.3342,-4.3417,-4.3485,-4.3511,-4.3488,-4.3486,-4.3508,-4.3512,-4.3506,-4.351,-4.3248,-4.3481,-4.3479,-4.3477,-4.3476,-4.3476,-4.2861,-4.2927,-4.2976,-4.3053,-4.3092,-4.314,-4.3203,-4.3225,-4.3292,-4.3369,-4.3364,-4.3453,-4.3499,-4.3588,-4.3619,-4.3687,-4.3658,-4.369,-4.3698,-4.3706,-4.3713,-4.3495,-4.3699,-4.3699,-4.3698,-4.3698,-4.3697,0,-4.3066,-4.3096,-4.3166,-4.3239,-4.3299,-4.3272,-4.3328,-4.3379,-4.3458,-4.3504,-4.3564,-4.3656,-4.3728,-4.3756,-4.3826,-4.3875,-4.3866,-4.3893,-4.389,-4.3896,-4.3736,-4.371,-4.39,-4.3899,-4.3899,-4.3899,-4.3899,-4.3899,-4.3179,-4.3288,-4.3297,-4.3424,-4.3452,-4.354,-4.3574,-4.3617,-4.3654,-4.3758,-4.3818,-4.3836,-4.3874,-4.3947,-4.4011,-4.4017,-4.4044,-4.4076,-4.4078,-4.3928,-4.3907,-4.3888,-4.3863,-4.4082,-4.4082,-4.4232,-4.4233,-4.4234]}]]